DW9955 Weather Reports


Display with metric or nautical units.
time (UTC)temp
F
wind
direction
speed
MPH
gust
MPH
rain 1hr
in
rain 24hr
in
rain mn
in
humidity
%
barometer
mb
20210805131602 55 170 1.0 4.0 0.00 0.00 0.00 81 1005.1
20210805130249 55 170 0.0 2.0 0.00 0.00 0.00 82 1004.9
20210805124623 55 170 0.0 3.0 0.00 0.00 0.00 80 1004.7
20210805123134 55 170 0.0 3.0 0.00 0.00 0.00 79 1004.6
20210805121621 55 170 0.0 5.0 0.00 0.00 0.00 79 1004.4
20210805120221 55 170 4.0 6.0 0.00 0.00 0.00 79 1004.1
20210805114622 55 159 0.0 3.0 0.00 0.00 0.00 78 1004.1
20210805113051 56 159 2.0 3.0 0.00 0.00 0.00 76 1004.1
20210805111533 55 160 1.0 3.0 0.00 0.00 0.00 78 1004.4
20210805110049 57 160 1.0 2.0 0.00 0.00 0.00 76 1004.2
20210805104544 59 160 3.0 6.0 0.00 0.00 0.00 71 1004.2
20210805103027 57 152 3.0 5.0 0.00 0.00 0.00 74 1004.2
20210805101520 57 135 0.0 3.0 0.00 0.00 0.00 75 1004.3
20210805100053 58 135 0.0 2.0 0.00 0.00 0.00 72 1004.4
20210805094530 60 135 2.0 7.0 0.00 0.00 0.00 70 1004.5
20210805093026 57 177 3.0 7.0 0.00 0.00 0.00 76 1004.5
20210805091515 58 172 0.0 3.0 0.00 0.00 0.00 76 1004.7
20210805090024 59 171 0.0 2.0 0.00 0.00 0.00 72 1004.7
20210805084510 60 172 1.0 4.0 0.00 0.00 0.00 69 1004.9
20210805083006 61 171 0.0 2.0 0.00 0.00 0.00 68 1004.9
20210805081502 63 151 1.0 3.0 0.00 0.00 0.00 62 1004.8
20210805080005 63 128 3.0 7.0 0.00 0.00 0.00 61 1004.8
20210805074701 63 160 5.0 8.0 0.00 0.00 0.00 63 1004.7
20210805073118 63 168 4.0 5.0 0.00 0.00 0.00 63 1004.8
20210805071650 65 170 8.0 11.0 0.00 0.00 0.00 60 1004.8
20210805070349 63 166 6.0 9.0 0.00 0.00 0.00 63 1005.0
20210805064623 63 179 3.0 5.0 0.00 0.00 0.00 65 1005.2
20210805063235 65 182 2.0 4.0 0.00 0.00 0.00 60 1005.2
20210805061809 66 182 3.0 6.0 0.00 0.00 0.00 59 1005.4
20210805060129 67 174 4.0 6.0 0.00 0.00 0.00 56 1005.3
20210805054602 67 172 5.0 9.0 0.00 0.00 0.00 56 1005.2
20210805053147 68 164 5.0 7.0 0.00 0.00 0.00 58 1005.4
20210805051621 68 158 7.0 9.0 0.00 0.00 0.00 57 1005.6
20210805050142 68 152 6.0 8.0 0.00 0.00 0.00 60 1005.8
20210805044550 69 171 7.0 11.0 0.00 0.00 0.00 59 1005.8
20210805043053 69 155 8.0 11.0 0.00 0.00 0.00 58 1005.9
20210805041547 70 170 7.0 9.0 0.00 0.00 0.00 57 1006.1
20210805040103 71 149 7.0 11.0 0.00 0.00 0.00 57 1006.1
20210805034825 71 166 7.0 9.0 0.00 0.00 0.00 57 1006.0
20210805033047 72 162 7.0 10.0 0.00 0.00 0.00 57 1006.0
20210805031606 72 173 6.0 9.0 0.00 0.00 0.00 55 1006.0
20210805030144 73 153 6.0 11.0 0.00 0.01 0.00 52 1006.0
20210805024608 73 166 1.0 6.0 0.00 0.01 0.00 51 1005.8
20210805023044 74 159 2.0 5.0 0.00 0.01 0.00 46 1005.8
20210805021620 76 160 1.0 3.0 0.00 0.01 0.00 47 1005.7
20210805020104 78 159 0.0 3.0 0.00 0.09 0.00 42 1005.8
20210805014531 79 159 1.0 4.0 0.00 0.09 0.00 41 1005.7
20210805013042 81 160 2.0 5.0 0.00 0.09 0.00 40 1005.9
20210805011530 81 158 3.0 7.0 0.00 0.09 0.00 35 1005.8
20210805010043 82 170 4.0 8.0 0.00 0.26 0.00 36 1005.9
20210805004551 82 176 5.0 9.0 0.00 0.26 0.00 37 1006.0
20210805003031 82 172 5.0 10.0 0.00 0.26 0.00 38 1006.0
20210805001532 83 177 7.0 10.0 0.00 0.26 0.00 38 1006.1
20210805000044 84 177 7.0 10.0 0.00 0.36 0.00 35 1006.0
20210804234525 84 191 7.0 9.0 0.00 0.36 0.00 35 1006.1
20210804233044 84 231 4.0 10.0 0.00 0.36 0.00 35 1006.1
20210804231607 82 177 5.0 9.0 0.00 0.36 0.00 40 1006.1
20210804230030 80 178 3.0 4.0 0.00 0.36 0.00 43 1006.1
20210804224529 79 180 3.0 5.0 0.00 0.36 0.00 47 1006.7
20210804223113 80 180 3.0 6.0 0.00 0.36 0.00 46 1006.9
20210804221522 81 178 4.0 6.0 0.00 0.36 0.00 42 1006.9
20210804220034 81 182 5.0 7.0 0.00 0.36 0.00 38 1007.1
20210804214516 82 172 5.0 9.0 0.00 0.36 0.00 38 1007.2
20210804213032 82 181 6.0 9.0 0.00 0.36 0.00 37 1007.5
20210804211518 82 22 0.0 2.0 0.00 0.36 0.00 41 1007.6
20210804210036 83 22 0.0 3.0 0.00 0.36 0.00 34 1007.6
20210804204518 83 22 1.0 9.0 0.00 0.36 0.00 33 1007.6
20210804203014 85 349 2.0 14.0 0.00 0.36 0.00 35 1007.6
20210804201519 85 116 3.0 8.0 0.00 0.36 0.00 30 1007.7
20210804200022 84 4 4.0 9.0 0.00 0.36 0.00 32 1007.8
20210804194515 84 336 2.0 10.0 0.00 0.36 0.00 34 1007.8
20210804193005 84 72 4.0 10.0 0.00 0.36 0.00 32 1007.8
20210804191727 83 19 1.0 12.0 0.00 0.36 0.00 30 1008.0
20210804190316 83 339 2.0 8.0 0.00 0.36 0.00 33 1008.0
20210804184700 82 330 3.0 8.0 0.00 0.36 0.00 34 1008.3
20210804183139 82 354 1.0 5.0 0.00 0.36 0.00 33 1008.4
20210804181636 81 359 4.0 8.0 0.00 0.36 0.00 33 1008.6
20210804180158 81 359 1.0 6.0 0.00 0.36 0.00 40 1008.8
20210804174749 80 345 3.0 8.0 0.00 0.36 0.00 39 1008.9
20210804173100 80 286 3.0 5.0 0.00 0.36 0.00 43 1008.8
20210804171624 80 250 1.0 4.0 0.00 0.36 0.00 43 1008.9
20210804170138 78 247 2.0 5.0 0.00 0.36 0.00 48 1008.9
20210804164556 78 232 1.0 3.0 0.00 0.36 0.00 51 1008.8
20210804163030 77 220 2.0 5.0 0.00 0.36 0.00 52 1008.8
20210804161552 76 156 1.0 3.0 0.00 0.36 0.00 56 1008.8
20210804160051 74 156 1.0 3.0 0.00 0.36 0.00 62 1008.8
20210804154546 72 156 0.0 3.0 0.00 0.36 0.00 67 1008.9
20210804153011 70 156 0.0 3.0 0.00 0.36 0.00 73 1009.0
20210804151509 69 156 0.0 1.0 0.00 0.36 0.00 70 1009.1
20210804150330 68 156 0.0 1.0 0.00 0.36 0.00 69 1009.1
20210804144730 67 156 0.0 3.0 0.00 0.36 0.00 69 1009.0
20210804143131 66 156 2.0 6.0 0.00 0.36 0.00 73 1008.9
20210804141711 64 156 3.0 5.0 0.00 0.36 0.00 75 1008.9
20210804140105 62 152 3.0 6.0 0.00 0.36 0.00 79 1008.8
20210804134603 61 150 3.0 5.0 0.00 0.36 0.00 79 1008.7
20210804133047 60 147 3.0 7.0 0.00 0.36 0.00 78 1008.7